Regional Weather Roundup
Issued by NWS

Home | Current Version | Previous Version | Graphics & Text | Print | Product List | Glossary On
Versions: 1 2 3 4 5 6 7 8 9 10 11 12 13 14 15 16 17 18 19 20 21 22 23 24 25 26 27 28 29 30 31 32 33 34 35 36 37 38 39 40 41 42 43 44 45 46 47 48 49 50
503
ASUS44 KMEG 202200
RWRTN
TENNESSEE HOURLY STATE WEATHER ROUNDUP
NATIONAL WEATHER SERVICE MEMPHIS TN
500 PM CDT FRI APR 20 2018

TNZ002-004-019-021-049-052-054-088>092-202300-
WEST TENNESSEE

CITY           SKY/WX    TMP DP  RH WIND       PRES   REMARKS
MEMPHIS INTL   FAIR      71  30  21 E6        30.26F
NWS MEMPHIS      N/A     69 N/A N/A MISG        N/A
JACKSON        FAIR      70  27  20 NE5       30.28F
DYERSBURG      FAIR      67  31  26 NE16      30.30F
$$

TNZ008-025-027-028-033-062-065-066-202300-
NORTH MIDDLE TENNESSEE

CITY           SKY/WX    TMP DP  RH WIND       PRES   REMARKS
NASHVILLE      FAIR      67  29  24 NE13G21   30.33F
CLARKSVILLE    FAIR      64  25  22 E9        30.34F
SMYRNA         FAIR      68  28  22 NE10      30.33S
CROSSVILLE     FAIR      65  23  20 N7        30.31F
$$

TNZ061-075-076-078-094-096-097-202300-
SOUTH MIDDLE TENNESSEE

CITY           SKY/WX    TMP DP  RH WIND       PRES   REMARKS
$$

TNZ017-018-042-046-047-202300-
NORTHEAST TENNESSEE

CITY           SKY/WX    TMP DP  RH WIND       PRES   REMARKS
TRI CITIES     FAIR      65  22  19 N5        30.31S
$$

TNZ012-013-036-069-073-074-202300-
CENTRAL EAST TENNESSEE

CITY           SKY/WX    TMP DP  RH WIND       PRES   REMARKS
KNOXVILLE      FAIR      64  31  28 N15       30.29F
OAK RIDGE      FAIR      66  25  21 VRB6      30.31F
$$

TNZ083-085-099-202300-
SOUTHEAST TENNESSEE

CITY           SKY/WX    TMP DP  RH WIND       PRES   REMARKS
CHATTANOOGA    FAIR      69  28  21 N13       30.28F
$$

SKY/WX REPORTED AS FAIR MEANS FEW OR NO CLOUDS BELOW
12 THOUSAND FEET.





USA.gov is the U.S. government's official web portal to all federal, state and local government web resources and services.